Location: Newark
(42.9277°N, 71.8621°W)
Time: 18:28:32
(UTC+00:00)

Transit 4A - Pass Details

Date: 20 May 2021
Orbit: 872 x 973 km, 66.8° (Epoch: 15 June)

Event Time Altitude Azimuth Distance (km) Brightness Sun altitude
Rises 07:19:40 0° 319° (NW) 3,477 11.0 -17.6°
Reaches altitude 10° 07:22:28 10° 308° (NW) 2,528 10.2 -17.2°
Maximum altitude 07:27:20 28° 252° (WSW) 1,570 8.6 -16.7°
Enters shadow 07:28:37 26° 229° (SW) 1,654 8.6 -16.5°
